Regional Weather Roundup
Issued by NWS

Home | Current Version | Previous Version | Text Only | Print | Product List | Glossary On
Versions: 1 2 3 4 5 6 7 8 9 10 11 12 13 14 15 16 17 18 19 20 21 22 23 24 25 26 27 28 29 30 31 32 33 34 35 36 37 38 39 40 41 42 43 44 45 46 47 48 49 50
000
ASUS42 KTBW 010010
RWRFL
FLORIDA REGIONAL WEATHER ROUNDUP
NATIONAL WEATHER SERVICE TAMPA BAY RUSKIN FL
800 PM EDT THU JUL 31 2014

NOTE: "FAIR" INDICATES FEW OR NO CLOUDS BELOW 12,000 FEET WITH NO
SIGNIFICANT WEATHER AND/OR OBSTRUCTIONS TO VISIBILITY.


FLZ001>010-012>015-112-114-115-010100-
PANHANDLE FLORIDA

CITY           SKY/WX    TMP DP  RH WIND       PRES   REMARKS
PENSACOLA      PTCLDY    81  62  52 W9        29.97S
PENSACOLA NAS  MOCLDY    81  64  56 SW5       29.97S
MILTON NAS     MOCLDY    84  62  47 CALM      29.98R
CRESTVIEW      CLEAR     83  65  54 CALM      29.99S
DUKE FIELD     PTCLDY    84  63  49 CALM      29.98R
VALPARAISO     PTCLDY    83  64  52 SW7       29.98R
MARY ESTHER    PTCLDY    82  60  47 SW5       29.97R
TRI COUNTY     LGT RAIN  81  72  74 CALM      29.98S
PANAMA CITY    FAIR      83  61  47 W13G23    29.96S
TYNDALL AFB    CLEAR     82  64  53 W6        29.98R
APALACHICOLA   CLEAR     80  63  55 SW8       29.98R

STATION/POSITION SKY/WX   TEMP    WIND        PRES    WAVE   SWELL
                          AIR SEA DIR/SP/G            HT/PER HT/PER
                          (F)     (DEG/KT/KT) (MB)    (FT/S) (FT/S)
30.1N   87.6W              82 84  240/  6/ 10 1015.4R   0
29.2N   88.2W              82 87   20/  4/  6 1015.6F
PANAMA CITY BEAC           82 81  280/ 12/ 13 1014.7F
CAPE SAN BLAS    NOT AVBL
TOWER C                    81     300/  8/  9 1015.2R
28.5N   84.5W              84 86   CALM  /  2 1015.4R   1/ 8   2/ 8

$$
FLZ011-016>038-118-127-128-134-139-239-010100-
NORTH FLORIDA

CITY           SKY/WX    TMP DP  RH WIND       PRES   REMARKS
MARIANNA       PTCLDY    86  64  47 NW3       29.97R
TALLAHASSEE    MOCLDY    86  65  49 S7        29.97R
PERRY          CLEAR     82  64  54 W6        29.98R
CROSS CITY       N/A     85  65  51 W7        29.96R
GAINESVILLE    PTCLDY    84  72  67 E5        29.96R
MAYPORT NAS    MOCLDY    86  71  60 SE13      29.98R
JACKSONVILLE   MOCLDY    84  71  65 E7        29.97R
JAX NAS        MOCLDY    89  73  59 E13       29.98R HX  97
JAX CRAIG      CLEAR     85  72  65 SE8       29.98R
JAX CECIL      PTCLDY    84  72  65 SE12      29.97
FERNANDINA BEA FAIR      86  70  58 SE8       29.97S
ST AUGUSTINE   PTCLDY    85  74  69 E12       29.98R

STATION/POSITION SKY/WX   TEMP    WIND        PRES    WAVE   SWELL
                          AIR SEA DIR/SP/G            HT/PER HT/PER
                          (F)     (DEG/KT/KT) (MB)    (FT/S) (FT/S)
SHELL POINT                85     220/  9/ 12   N/A
KEATON BEACH               84     260/ 11/ 12 1015.0S
CEDAR KEY                  86     300/ 11/ 14 1014.8F
FERNANDINA                 85 88  120/  5/ 12 1014.8R
30.7N   81.3W                 85                N/A     2/ 8
MAYPORT                    86 87  120/  6/ 10   N/A
31.4N   80.9W              85 85  140/ 14/ 16 1015.1R   2/ 8   2/ 8
ST AUGUSTINE               83     120/ 12/ 14 1015.8R

$$
FLZ040-043>046-052-053-057-058-063-144-010100-
INTERIOR CENTRAL FLORIDA

CITY           SKY/WX    TMP DP  RH WIND       PRES   REMARKS
OCALA          CLOUDY    88  64  45 SW6       29.97R
LEESBURG       CLOUDY    88  75  65 CALM      29.97R HX  97
SANFORD        MOCLDY    83  75  77 E8        29.96R
ORLANDO EXEC   PTCLDY    85  76  74 E8        29.96R
ORLANDO INTL   MOCLDY    88  69  53 SW6       29.96R
KISSIMMEE      PTCLDY    90  70  51 VRB3      29.97R HX  95
WINTER HAVEN   CLEAR     86  68  54 SW7       29.98R
LAKELAND       PTCLDY    86  68  54 W3        29.98R
BARTOW         FAIR      86  66  51 SW7       29.98R
OKEECHOBEE     CLOUDY    79  72  78 MISG      29.99R

$$
FLZ041-047-054-059-064-141-147-010100-
EAST CENTRAL FLORIDA

CITY           SKY/WX    TMP DP  RH WIND       PRES   REMARKS
DAYTONA BEACH  CLOUDY    83  76  79 E3        29.97S
DELAND         MOCLDY    82  77  83 E6        29.98R
NEW SMYRNA BEA MOCLDY    82  81  94 S5        29.97S HX  95
JFK SPACE CTR  MOCLDY    83  78  84 VRB5      29.97R
TITUSVILLE     PTCLDY    84  75  74 S12       29.96S
CAPE CANAVERAL MOCLDY    84  76  77 S12       29.96R
PATRICK AFB    PTCLDY    85  76  75 S16       29.96R
MELBOURNE      PTCLDY    86  74  67 SE13      29.96R
VERO BEACH     CLOUDY    80  74  81 S8        29.99R
FT PIERCE      CLOUDY    80  74  81 S7        29.99R

STATION/POSITION SKY/WX   TEMP    WIND        PRES    WAVE   SWELL
                          AIR SEA DIR/SP/G            HT/PER HT/PER
                          (F)     (DEG/KT/KT) (MB)    (FT/S) (FT/S)
28.5N   80.2W              84 83  150/ 14/ 17 1014.9S
28.9N   78.5W              83 84  140/  6/  8 1016.5R   2/ 8   2/ 8
TRIDENT PIER               84 86  160/  8/ 12 1014.3R
28.4N   80.5W                 84                N/A     3/ 4
27.6N   80.2W                 83                N/A     2/ 3

$$
FLZ050-056-061-142-242-148-248-149-249-151-251-155-255-
160-260-010100-
WEST CENTRAL FLORIDA

CITY           SKY/WX    TMP DP  RH WIND       PRES   REMARKS
CRYSTAL RIVER  FAIR      82  64  54 W6        29.97S
INVERNESS      FAIR      82  61  47 CALM      29.98R HAZE
BROOKSVILLE    CLEAR     85  66  53 NW8       29.99R
ZEPHYRHILLS    FAIR      82  66  57 W8        29.98S
CLEARWATER     CLEAR     84  66  54 NW8       29.98R
TAMPA INTL     PTCLDY    85  66  53 NW9       29.98R
TAMPA EXEC     MOCLDY    86  68  54 NW6       29.98R
MACDILL AFB    CLEAR     85  71  62 N7        29.98R
ST PETERSBURG  CLEAR     86  68  54 N9        29.97R
SARASOTA       CLEAR     85  68  56 NW9       29.97R
VENICE         FAIR      86  66  51 NW7       29.99S

STATION/POSITION SKY/WX   TEMP    WIND        PRES    WAVE   SWELL
                          AIR SEA DIR/SP/G            HT/PER HT/PER
                          (F)     (DEG/KT/KT) (MB)    (FT/S) (FT/S)
CEDAR KEY                  86     300/ 11/ 14 1014.8F
28.5N   84.5W              84 86   CALM  /  2 1015.4R   1/ 8   2/ 8
27.3N   84.3W                 87                N/A     1
CLEARWATER BEACH           85 89  310/  9/ 11 1015.0R
MIDDLE TAMPA BAY           86     350/ 10/ 11 1015.5R
VENICE                     85 89  320/  9/ 10 1014.7R

$$
FLZ066-069-070-075>078-162-262-165-265-010100-
SOUTHWEST FLORIDA AND KEYS

CITY           SKY/WX    TMP DP  RH WIND       PRES   REMARKS
PUNTA GORDA    PTCLDY    88  69  53 W9        29.98R
FT MYERS       CLOUDY    85  77  77 S6        29.97R HX  95
SOUTHWEST INTL CLOUDY    82  75  79 S9        29.97S
NAPLES         CLOUDY    84  78  82 E3        29.97S HX  95
MARCO ISLAND   CLEAR     84  77  79 CALM      29.98S
MARATHON       PTCLDY    87  74  64 NW3       29.99R HX  95
KEY WEST NAS   MOCLDY    86  74  67 NW5       29.99R
KEY WEST INTL  CLEAR     87  74  64 CALM      29.99R HX  95

STATION/POSITION SKY/WX   TEMP    WIND        PRES    WAVE   SWELL
                          AIR SEA DIR/SP/G            HT/PER HT/PER
                          (F)     (DEG/KT/KT) (MB)    (FT/S) (FT/S)
VENICE                     85 89  320/  9/ 10 1014.7R
NAPLES                     87 94  270/  1/  3 1015.4F
DRY TORTUGAS               85      20/  2/  3 1015.4R
NW FL BAY                  87     290/  5/  5 1015.0R
SAND KEY                   85     330/  3/  4 1015.4R
SOMBRERO KEY               86      CALM  /  1 1016.6R
LONG KEY                   88 92  160/  2/  3 1015.6F
MOLASSES REEF              85 87   CALM  /  3 1016.0R

$$
FLZ067-068-071>074-168-172>174-010100-
SOUTHEAST FLORIDA

CITY           SKY/WX    TMP DP  RH WIND       PRES   REMARKS
W PALM BEACH   CLOUDY    79  75  87 S3        29.98S
FT LAUDER-EXEC CLOUDY    78  78 100 CALM      29.99S
FT LAUDERDALE  CLOUDY    80  75  84 NW5       29.99S
POMPANO BEACH  CLOUDY   N/A N/A N/A MISG      29.99S
PEMBROKE PINES CLOUDY    78  75  90 CALM      30.01S
OPA LOCKA      CLOUDY    78  74  87 W3        30.00S
MIAMI          CLOUDY    78  74  87 W5        30.01R
WEST KENDALL   CLOUDY    80  74  81 N3        30.01R
HOMESTEAD      MOCLDY    79  74  86 W9        30.01R

STATION/POSITION SKY/WX   TEMP    WIND        PRES    WAVE   SWELL
                          AIR SEA DIR/SP/G            HT/PER HT/PER
                          (F)     (DEG/KT/KT) (MB)    (FT/S) (FT/S)
PORT EVERGLADES            80     270/  6/  8 1015.4
VIRGINIA KEY               81 88  280/  6/  7   N/A
LAKE WORTH                 80 84  220/  2/  5 1015.3S
FOWEY ROCKS                84 86  290/  6/  7 1016.3R
SETTLEMENT POINT           83     160/  6/  8 1016.7R

$$



USA.gov is the U.S. government's official web portal to all federal, state and local government web resources and services.